North Las Vegas, NV

3:07 AM PDT on April 25, 2017 (GMT -0700)
North Las Vegas

Weather History for KVGT - May, 2014

Change the Weather History Date:

Sunday, May 18, 2014

  Actual Average Record
Temperature  
Mean Temperature 85 °F 77 °F  
Max Temperature 95 °F 88 °F 103 °F (2009)
Min Temperature 75 °F 65 °F 52 °F (2011)
Degree Days  
Heating Degree Days 0 0  
Month to date heating degree days 0  
Since 1 July heating degree days 2038  
Cooling Degree Days 20 12  
Month to date cooling degree days 168  
Year to date cooling degree days 295  
Growing Degree Days 35 (Base 50)    
Moisture  
Dew Point 10 °F    
Average Humidity 6    
Maximum Humidity 9    
Minimum Humidity 4    
Precipitation  
Precipitation 0.00 in 0.00 in 0.10 in (2011)
Month to date precipitation 0.08  
Year to date precipitation 2.54  
Sea Level Pressure  
Sea Level Pressure 29.60 in    
Wind  
Wind Speed 14 mph (SW)    
Max Wind Speed 29 mph    
Max Gust Speed 39 mph    
Visibility 10 miles    
Events      
T = Trace of Precipitation, MM = Missing Value Source: NWS Daily Summary

Daily Weather History Graph

Daily Weather History Graph

Search for Another Location

Airport or City:

Trip Planner

Search our weather history database for the weather conditions in past years. The results will help you decide how hot, cold, wet, or windy it might be!

Date:

Astronomy

May. 18, 2014 Rise Set
Actual Time 5:32 AM PDT 7:42 PM PDT
Civil Twilight 5:03 AM PDT 8:11 PM PDT
Nautical Twilight 4:28 AM PDT 8:47 PM PDT
Astronomical Twilight 3:49 AM PDT 9:25 PM PDT
Moon 11:36 PM PDT (5/18) 9:24 AM PDT (5/18)
Length of Visible Light 15h 08m
Length of Day
14h 10m
Waning Gibbous, 80% of the Moon is Illuminated
May 18
Waning Gibbous
May 21
Last Quarter
May 28
New
Jun 5
First Quarter
Jun 12
Full

Hourly Weather History & Observations

Time (PDT) Temp. Dew Point Humidity Pressure Visibility Wind Dir Wind Speed Gust Speed Precip Events Conditions
12:53 AM 84.9 °F 3.9 °F 5% 29.62 in 10.0 mi South 12.7 mph 21.9 mph N/A   Clear
1:53 AM 82.0 °F 6.1 °F 6% 29.61 in 10.0 mi South 10.4 mph - N/A   Clear
2:53 AM 82.9 °F 3.9 °F 5% 29.59 in 10.0 mi South 20.7 mph 24.2 mph N/A   Clear
3:53 AM 82.9 °F 6.1 °F 5% 29.59 in 10.0 mi SW 13.8 mph 19.6 mph N/A   Clear
4:53 AM 78.1 °F 9.0 °F 7% 29.60 in 10.0 mi West 5.8 mph - N/A   Clear
5:53 AM 75.0 °F 12.0 °F 9% 29.63 in 10.0 mi NNW 3.5 mph - N/A   Clear
6:53 AM 75.0 °F 7.0 °F 7% 29.65 in 10.0 mi Calm Calm - N/A   Clear
7:53 AM 79.0 °F 12.0 °F 8% 29.65 in 10.0 mi North 3.5 mph - N/A   Clear
8:53 AM 82.9 °F 18.0 °F 9% 29.65 in 10.0 mi Variable 3.5 mph - N/A   Clear
9:53 AM 87.1 °F 16.0 °F 7% 29.64 in 10.0 mi SSE 9.2 mph 19.6 mph N/A   Clear
10:53 AM 89.1 °F 12.9 °F 6% 29.63 in 10.0 mi West 3.5 mph - N/A   Clear
11:53 AM 91.0 °F 12.9 °F 6% 29.61 in 10.0 mi SSW 8.1 mph - N/A   Clear
12:53 PM 93.0 °F 10.0 °F 5% 29.60 in 10.0 mi SSW 16.1 mph 25.3 mph N/A   Clear
1:53 PM 95.0 °F 10.0 °F 4% 29.58 in 10.0 mi SW 23.0 mph 31.1 mph N/A   Clear
2:53 PM 93.9 °F 10.9 °F 5% 29.57 in 10.0 mi SW 19.6 mph 29.9 mph N/A   Clear
3:53 PM 95.0 °F 10.9 °F 4% 29.55 in 10.0 mi SW 26.5 mph 33.4 mph N/A   Clear
4:53 PM 93.9 °F 10.0 °F 4% 29.55 in 10.0 mi SSW 26.5 mph 36.8 mph N/A   Clear
5:53 PM 91.9 °F 10.0 °F 5% 29.55 in 10.0 mi SW 24.2 mph 35.7 mph N/A   Clear
6:53 PM 89.1 °F 7.0 °F 5% 29.54 in 10.0 mi SW 26.5 mph 38.0 mph N/A   Clear
7:53 PM 84.9 °F 10.0 °F 6% 29.55 in 10.0 mi SW 28.8 mph 36.8 mph N/A   Clear
8:53 PM 82.4 °F 10.4 °F 7% 29.57 in 10.0 mi SW 28.8 mph 39.1 mph N/A   Clear
9:53 PM 81.0 °F 10.0 °F 7% 29.59 in 10.0 mi WSW 24.2 mph 32.2 mph N/A   Clear
10:53 PM 78.1 °F 14.0 °F 9% 29.60 in 10.0 mi WSW 17.3 mph - N/A   Clear
11:53 PM 75.9 °F 12.9 °F 9% 29.61 in 10.0 mi SSE 21.9 mph 29.9 mph N/A   Clear